Weather History for KLBL - April, 2014

Change the Weather History Date:

Saturday, April 12, 2014

  Actual Average Record
Temperature  
Mean Temperature 71 °F -  
Max Temperature 91 °F 71 °F 93 °F (1972)
Min Temperature 51 °F 41 °F 15 °F (1997)
Cooling Degree Days 6    
Growing Degree Days 21 (Base 50)    
Moisture  
Dew Point 31 °F    
Average Humidity 30    
Maximum Humidity 62    
Minimum Humidity 10    
Precipitation  
Precipitation 0.00 in - - ()
Sea Level Pressure  
Sea Level Pressure 29.66 in    
Wind  
Wind Speed 12 mph (SW)    
Max Wind Speed 28 mph    
Max Gust Speed 33 mph    
Visibility 10 miles    
Events      
Averages and records for this station are not official NWS values.
T = Trace of Precipitation, MM = Missing Value Source: NWS Daily Summary

Daily Weather History Graph

Daily Weather History Graph

Search for Another Location

Airport or City:

Trip Planner

Search our weather history database for the weather conditions in past years. The results will help you decide how hot, cold, wet, or windy it might be!

Date:

Astronomy

Apr. 12, 2014 Rise Set
Actual Time 7:13 AM CDT 8:16 PM CDT
Civil Twilight 6:47 AM CDT 8:42 PM CDT
Nautical Twilight 6:15 AM CDT 9:14 PM CDT
Astronomical Twilight 5:42 AM CDT 9:47 PM CDT
Moon 5:59 PM CDT (4/12) 5:37 AM CDT (4/12)
Length of Visible Light 13h 55m
Length of Day
13h 02m
Waxing Gibbous, 93% of the Moon is Illuminated
Apr 12
Waxing Gibbous
Apr 15
Full
Apr 22
Last Quarter
Apr 29
New
May 6
First Quarter

Hourly Weather History & Observations

Time (CDT) Temp. Dew Point Humidity Pressure Visibility Wind Dir Wind Speed Gust Speed Precip Events Conditions
12:15 AM 60.8 °F 42.8 °F 52% 29.83 in 10.0 mi SSE 11.5 mph - N/A   Clear
12:35 AM 60.8 °F 42.8 °F 52% 29.83 in 10.0 mi SSE 11.5 mph - N/A   Clear
12:55 AM 59.0 °F 42.8 °F 55% 29.83 in 10.0 mi South 12.7 mph - N/A   Clear
1:15 AM 57.2 °F 42.8 °F 59% 29.82 in 10.0 mi SSE 12.7 mph - N/A   Clear
1:35 AM 57.2 °F 41.0 °F 55% 29.81 in 10.0 mi South 11.5 mph - N/A   Clear
1:55 AM 55.4 °F 41.0 °F 58% 29.80 in 10.0 mi South 11.5 mph - N/A   Clear
2:15 AM 55.4 °F 39.2 °F 54% 29.79 in 10.0 mi South 10.4 mph - N/A   Clear
2:35 AM 53.6 °F 39.2 °F 58% 29.78 in 10.0 mi South 9.2 mph - N/A   Clear
2:55 AM 53.6 °F 39.2 °F 58% 29.77 in 10.0 mi South 9.2 mph - N/A   Clear
3:15 AM 51.8 °F 39.2 °F 62% 29.77 in 10.0 mi South 8.1 mph - N/A   Clear
3:35 AM 51.8 °F 39.2 °F 62% 29.76 in 10.0 mi South 9.2 mph - N/A   Clear
3:55 AM 51.8 °F 39.2 °F 62% 29.75 in 10.0 mi South 10.4 mph - N/A   Clear
4:15 AM 51.8 °F 39.2 °F 62% 29.74 in 10.0 mi South 11.5 mph - N/A   Clear
4:35 AM 53.6 °F 39.2 °F 58% 29.74 in 10.0 mi South 12.7 mph - N/A   Clear
4:55 AM 53.6 °F 39.2 °F 58% 29.73 in 10.0 mi South 12.7 mph - N/A   Clear
5:15 AM 53.6 °F 39.2 °F 58% 29.73 in 10.0 mi South 13.8 mph - N/A   Clear
5:35 AM 53.6 °F 39.2 °F 58% 29.73 in 10.0 mi South 13.8 mph - N/A   Clear
5:55 AM 53.6 °F 37.4 °F 54% 29.72 in 10.0 mi South 13.8 mph - N/A   Clear
6:15 AM 53.6 °F 37.4 °F 54% 29.71 in 10.0 mi South 15.0 mph - N/A   Clear
6:35 AM 53.6 °F 35.6 °F 51% 29.71 in 10.0 mi South 16.1 mph - N/A   Clear
6:55 AM 53.6 °F 33.8 °F 47% 29.72 in 10.0 mi South 17.3 mph - N/A   Clear
7:15 AM 53.6 °F 33.8 °F 47% 29.72 in 10.0 mi South 17.3 mph - N/A   Clear
7:35 AM 51.8 °F 33.8 °F 50% 29.72 in 10.0 mi South 16.1 mph - N/A   Clear
7:55 AM 53.6 °F 32.0 °F 44% 29.72 in 10.0 mi South 16.1 mph - N/A   Clear
8:15 AM 53.6 °F 30.2 °F 41% 29.73 in 10.0 mi South 13.8 mph - N/A   Clear
8:35 AM 55.4 °F 30.2 °F 38% 29.73 in 10.0 mi South 13.8 mph - N/A   Clear
8:55 AM 55.4 °F 30.2 °F 38% 29.73 in 10.0 mi SSW 13.8 mph - N/A   Clear
9:15 AM 59.0 °F 30.2 °F 34% 29.73 in 10.0 mi SW 13.8 mph - N/A   Clear
9:35 AM 60.8 °F 30.2 °F 31% 29.72 in 10.0 mi WSW 11.5 mph - N/A   Clear
9:55 AM 66.2 °F 32.0 °F 28% 29.72 in 10.0 mi WSW 10.4 mph 16.1 mph N/A   Clear
10:15 AM 71.6 °F 30.2 °F 22% 29.72 in 10.0 mi West 13.8 mph - N/A   Clear
10:35 AM 77.0 °F 32.0 °F 19% 29.72 in 10.0 mi WNW 16.1 mph - N/A   Clear
10:55 AM 80.6 °F 30.2 °F 16% 29.72 in 10.0 mi West 15.0 mph - N/A   Clear
11:15 AM 82.4 °F 28.4 °F 14% 29.72 in 10.0 mi WNW 13.8 mph 19.6 mph N/A   Clear
11:35 AM 82.4 °F 26.6 °F 13% 29.72 in 10.0 mi WNW 12.7 mph - N/A   Clear
11:55 AM 82.4 °F 26.6 °F 13% 29.71 in 10.0 mi NW 11.5 mph 16.1 mph N/A   Clear
12:15 PM 82.4 °F 26.6 °F 13% 29.71 in 10.0 mi WNW 8.1 mph 18.4 mph N/A   Clear
12:35 PM 84.2 °F 26.6 °F 12% 29.69 in 10.0 mi WNW 11.5 mph 17.3 mph N/A   Clear
12:55 PM 84.2 °F 26.6 °F 12% 29.68 in 10.0 mi NW 10.4 mph 17.3 mph N/A   Clear
1:15 PM 84.2 °F 28.4 °F 13% 29.67 in 10.0 mi NNW 12.7 mph 17.3 mph N/A   Clear
1:35 PM 84.2 °F 28.4 °F 13% 29.65 in 10.0 mi NNW 11.5 mph 18.4 mph N/A   Clear
1:55 PM 87.8 °F 28.4 °F 12% 29.64 in 10.0 mi NNW 11.5 mph 16.1 mph N/A   Clear
2:15 PM 86.0 °F 28.4 °F 12% 29.63 in 10.0 mi NW 10.4 mph - N/A   Clear
2:35 PM 86.0 °F 28.4 °F 12% 29.62 in 10.0 mi North 4.6 mph - N/A   Clear
2:55 PM 87.8 °F 28.4 °F 12% 29.61 in 10.0 mi NW 11.5 mph - N/A   Clear
3:15 PM 87.8 °F 26.6 °F 11% 29.60 in 10.0 mi NW 4.6 mph - N/A   Clear
3:35 PM 87.8 °F 28.4 °F 12% 29.60 in 10.0 mi NW 9.2 mph - N/A   Clear
3:55 PM 87.8 °F 28.4 °F 12% 29.58 in 10.0 mi South 6.9 mph - N/A   Clear
4:15 PM 89.6 °F 28.4 °F 11% 29.57 in 10.0 mi West 4.6 mph 17.3 mph N/A   Clear
4:35 PM 89.6 °F 28.4 °F 11% 29.56 in 10.0 mi West 13.8 mph 24.2 mph N/A   Clear
4:55 PM 89.6 °F 28.4 °F 11% 29.55 in 10.0 mi WSW 15.0 mph 26.5 mph N/A   Clear
5:15 PM 91.4 °F 28.4 °F 10% 29.54 in 10.0 mi SW 20.7 mph 27.6 mph N/A   Clear
5:35 PM 91.4 °F 28.4 °F 10% 29.54 in 10.0 mi WSW 19.6 mph 26.5 mph N/A   Clear
5:55 PM 89.6 °F 28.4 °F 11% 29.53 in 10.0 mi SW 17.3 mph 21.9 mph N/A   Clear
6:15 PM 89.6 °F 28.4 °F 11% 29.53 in 10.0 mi SW 17.3 mph 26.5 mph N/A   Clear
6:35 PM 86.0 °F 26.6 °F 12% 29.53 in 10.0 mi SW 15.0 mph - N/A   Clear
6:55 PM 84.2 °F 24.8 °F 11% 29.54 in 10.0 mi West 27.6 mph 33.4 mph N/A   Clear
7:15 PM 84.2 °F 24.8 °F 11% 29.54 in 10.0 mi WSW 18.4 mph 25.3 mph N/A   Clear
7:35 PM 82.4 °F 24.8 °F 12% 29.55 in 10.0 mi WSW 13.8 mph - N/A   Clear
7:55 PM 80.6 °F 23.0 °F 12% 29.55 in 10.0 mi SW 13.8 mph - N/A   Clear
8:15 PM 77.0 °F 23.0 °F 13% 29.55 in 10.0 mi SW 12.7 mph - N/A   Clear
8:35 PM 73.4 °F 21.2 °F 14% 29.55 in 10.0 mi SW 9.2 mph - N/A   Clear
8:55 PM 69.8 °F 21.2 °F 16% 29.55 in 10.0 mi WSW 10.4 mph - N/A   Clear
9:15 PM 66.2 °F 23.0 °F 19% 29.55 in 10.0 mi WSW 10.4 mph - N/A   Clear
9:35 PM 64.4 °F 24.8 °F 22% 29.55 in 10.0 mi WSW 10.4 mph - N/A   Clear
9:55 PM 64.4 °F 24.8 °F 22% 29.55 in 10.0 mi West 6.9 mph - N/A   Clear
10:15 PM 62.6 °F 26.6 °F 26% 29.55 in 10.0 mi WSW 5.8 mph - N/A   Clear
10:35 PM 60.8 °F 24.8 °F 25% 29.55 in 10.0 mi South 8.1 mph - N/A   Clear
10:55 PM 60.8 °F 24.8 °F 25% 29.54 in 10.0 mi South 5.8 mph - N/A   Clear
11:15 PM 62.6 °F 26.6 °F 26% 29.54 in 10.0 mi South 11.5 mph - N/A   Clear
11:35 PM 62.6 °F 26.6 °F 26% 29.53 in 10.0 mi SSW 10.4 mph - N/A   Clear
11:55 PM 62.6 °F 26.6 °F 26% 29.53 in 10.0 mi WNW 9.2 mph - N/A   Clear